TRANSPORTER-15 AB (66691 NORAD) Tracking and Keplerian Element Data

This shows tracking and keplerian element data for the satellite.

Feedback or suggestion? Click here.




ElementValue
Catalog66691
NameTRANSPORTER-15 AB
Epoch Orbit322
Epoch Day353.99592096
Epoch Year2025
RAAN65.629
Inclination97.443
Eccentricity0.0003619
Argument of Perigee262.8846
Mean Anonmoly97.1976
Mean Motion15.17242522
Decay Rate7.283E-05
L11 66691U 25276AB 25353.99592096 .00007283 00000+0 36926-3 0 9995
L22 66691 97.4430 65.6290 0003619 262.8846 97.1976 15.17242522 3227



Live tracking and technical data element details for TRANSPORTER-15 AB (NORAD 66691). TRANSPORTER-15 AB can be tracked NOW for your location showing map with azimuth and elevation plus other details from your city location.







IsCatalogInMostPopularTable: catalog: 66691, numindb: 18
Update: records affected: 1



GetName: 66691 TRANSPORTER-15 AB

Hit Count: updated at: Tue, 21 Apr 2026 19:10:05 GMT